Location: Arcusa
(42.3167°N, 0.0833°W)
Time: 05:35:03
(UTC+00:00)

Daily predictions for brighter satellites

Satellite Brightness Start Highest point End
(mag) Time Altitude Azimuth Time Altitude Azimuth Time Altitude Azimuth
Cosmos 1980 Rocket 4.4 03:36:51 20° ENE 03:36:51 20° ENE 03:38:54 10° NE
ATLAS 3B R/B 4.3 03:53:12 23° NNE 03:54:32 24° NE 03:59:59 10° E
NOSS 3-2 (A) 4.1 04:13:07 65° N 04:14:04 71° NE 04:22:30 10° SE
USA 215 4.3 04:09:08 10° E 04:14:56 35° NNE 04:15:48 34° N
CENTAUR R/B 3.9 04:12:00 32° N 04:15:22 46° NE 04:23:38 10° ESE
Lacrosse 5 3.9 04:22:36 20° SSE 04:24:05 23° ESE 04:28:00 10° ENE
Cosmos 2263 Rocket 3.5 04:28:58 26° NNE 04:31:16 36° ENE 04:36:26 10° ESE
Lacrosse 5 rocket 4.3 04:33:22 11° NNE 04:33:22 11° NNE 04:33:36 10° NNE
ATLAS 2AS CENTAUR R/B 3.1 04:37:51 34° SSW 04:41:42 76° ESE 04:49:43 10° NE
CZ-3 R/B 3.9 04:34:17 33° WSW 04:42:40 45° SSW 04:50:53 10° SE
Cosmos 1825 Rocket 4.3 04:49:24 51° ESE 04:49:24 51° ESE 04:53:14 10° SSE
Okean O Rocket 4.2 04:47:26 10° NE 04:50:43 20° E 04:53:59 10° SE
Cosmos 2344 3.6 04:50:42 53° WNW 04:51:05 53° NW 04:59:06 10° NNE
USA 238 DEB 3.7 04:52:03 61° WNW 04:53:06 69° WSW 05:00:28 10° SSE
USA 238 3.7 04:52:07 61° WNW 04:53:12 69° WSW 05:00:35 10° SSE
COSMOS 2455 2.9 05:01:23 58° NW 05:01:23 58° NW 05:07:04 10° NNE
STARLINK 1031 4.2 05:06:14 48° E 05:06:14 48° E 05:09:13 10° ENE
Cosmos 1606 Rocket 3.6 05:02:01 10° S 05:06:26 80° E 05:10:52 10° N
SL-16 R/B 2.9 05:01:17 10° S 05:06:46 54° ESE 05:12:18 10° NNE
Cosmos 1726 Rocket 3.9 05:02:33 10° S 05:06:56 64° E 05:11:19 10° NNE
Cosmos 2154 Rocket 4.0 05:07:51 54° W 05:07:51 54° W 05:13:44 10° SSW
Orbus 7S? 4.0 05:07:24 47° NNE 05:07:48 49° NE 05:13:40 10° ESE
FENGYUN 3A 4.2 05:03:03 10° NNE 05:08:24 60° E 05:13:44 10° S
STARLINK 1024 4.0 05:09:17 53° E 05:09:17 53° E 05:12:24 10° ENE
COSMO-SKYMED 1 2.6 05:06:34 10° SSE 05:10:53 77° ENE 05:12:24 40° N
Cosmos 2360 Rocket 4.4 05:07:08 10° SSE 05:11:40 25° ESE 05:16:12 10° NE
Abrixas rocket 3.8 05:14:30 29° ESE 05:14:30 29° ESE 05:16:09 10° ESE
STARLINK 1032 3.6 05:15:24 65° ESE 05:15:24 65° ESE 05:18:49 10° ENE
Cosmos 1295 Rocket 4.4 05:09:13 10° NNW 05:15:19 63° W 05:21:19 10° S
Cosmos 1980 Rocket 2.8 05:18:40 37° NW 05:18:40 37° NW 05:23:08 10° N
STARLINK 1011 3.4 05:18:28 72° ESE 05:18:28 72° ESE 05:22:01 10° NE
Cosmos 2228 2.9 05:14:01 10° S 05:18:26 84° W 05:22:50 10° N
STARLINK 1036 3.3 05:21:33 79° SE 05:21:33 79° SE 05:25:14 10° NE
CZ-4B R/B 4.3 05:16:45 10° NNE 05:22:01 44° E 05:27:09 10° S
BREEZE-M DEB (TANK) 4.3 05:21:07 39° NNW 05:22:06 49° NNE 05:30:10 10° ESE
RESURS DK-1 4.1 05:19:50 10° S 05:23:33 33° ESE 05:27:18 10° NE
Cosmos 1328 4.0 05:21:05 21° N 05:23:37 70° E 05:27:33 10° SSE
Cosmos 1697 Rocket 4.3 05:26:19 17° NNW 05:26:19 17° NNW 05:28:28 10° N
Meteor 1-16 Rocket 4.2 05:18:25 10° SSW 05:24:21 81° W 05:30:12 10° N
STARLINK 1047 3.1 05:27:45 79° SW 05:27:58 89° SSE 05:31:42 10° NE
STARLINK 1037 3.1 05:29:19 75° WSW 05:29:36 88° NW 05:33:19 10° NE
Cosmos 2366 rocket 4.2 05:23:19 10° N 05:29:42 74° E 05:36:02 10° SSE
Cosmos 1908 3.2 05:27:24 10° S 05:31:19 82° E 05:35:14 10° N
Genesis I 3.1 05:31:07 52° NNW 05:31:59 84° ENE 05:35:48 10° SE
STARLINK 1059 3.2 05:32:27 68° WSW 05:32:52 83° NW 05:36:36 10° NE
STARLINK 1057 3.2 05:35:36 61° WSW 05:36:08 78° NW 05:39:52 10° NE
Cosmos 2056 Rocket 4.1 05:31:24 10° NNW 05:36:49 61° ENE 05:42:09 10° SSE
STARLINK 1052 3.2 05:38:46 55° W 05:39:26 73° NW 05:43:10 10° NE
Cosmos 923 Rocket 4.2 05:37:26 25° SW 05:40:07 46° WNW 05:45:15 10° N
PAYLOAD B 4.2 05:36:04 10° NNE 05:41:43 89° ESE 05:47:19 10° SSW
ALOS 2.2 05:37:33 10° N 05:42:10 61° WNW 05:46:45 10° SSW
STARLINK 1068 3.2 05:41:56 50° W 05:42:44 69° NW 05:46:27 10° NE
NOSS 3-2 (C) 4.2 05:40:29 21° NW 05:45:43 55° WSW 05:53:56 10° SSE
SL-4 R/B 3.5 05:46:31 17° SSW 05:46:31 17° SSW 05:48:15 10° S
ATLAS 3B R/B 2.7 05:40:28 16° NW 05:46:06 90° E 05:53:03 10° SSE
USA 116 3.9 05:43:15 10° S 05:47:54 75° WSW 05:52:01 10° NNW
MOS 1-B 4.3 05:42:25 10° N 05:48:10 67° WNW 05:53:54 10° SSW
STARLINK 1028 3.4 05:49:09 38° NNW 05:49:09 38° NNW 05:51:38 10° NE
STARLINK 1021 3.4 05:49:26 38° NNW 05:49:26 38° NNW 05:51:56 10° NE
STARLINK 1060 3.3 05:48:17 40° W 05:49:21 61° NNW 05:53:03 10° NE
STARLINK 1019 3.4 05:49:42 38° NNW 05:49:42 38° NNW 05:52:10 10° NE
STARLINK 1012 3.4 05:49:52 38° NNW 05:49:52 38° NNW 05:52:23 10° NE
STARLINK 1010 3.4 05:50:05 38° NNW 05:50:05 38° NNW 05:52:36 10° NE
STARLINK 1026 3.4 05:50:18 38° NNW 05:50:18 38° NNW 05:52:49 10° NE
STARLINK 1013 3.4 05:50:31 38° NNW 05:50:31 38° NNW 05:53:03 10° NE
STARLINK 1009 3.4 05:50:44 38° NNW 05:50:44 38° NNW 05:53:17 10° NE
STARLINK 1015 3.4 05:50:57 37° NNW 05:50:57 37° NNW 05:53:30 10° NE
STARLINK 1016 3.4 05:51:10 37° NNW 05:51:10 37° NNW 05:53:43 10° NE
STARLINK 1008 3.4 05:51:22 37° NNW 05:51:22 37° NNW 05:53:56 10° NE
STARLINK 1025 3.4 05:51:49 37° NNW 05:51:49 37° NNW 05:54:23 10° NE
STARLINK 1017 3.4 05:52:02 37° NNW 05:52:02 37° NNW 05:54:38 10° NE
Timation 1 Rocket 4.5 05:47:37 18° NW 05:51:56 52° WSW 05:57:44 10° S
STARLINK 1023 3.4 05:52:13 37° NNW 05:52:13 37° NNW 05:54:50 10° NE
STARLINK 1007 3.4 05:52:27 37° NNW 05:52:27 37° NNW 05:55:04 10° NE
STARLINK 1048 3.4 05:52:41 37° NNW 05:52:41 37° NNW 05:55:18 10° NE
STARLINK 1030 3.4 05:51:27 37° W 05:52:41 58° NNW 05:56:22 10° NE
STARLINK 1049 3.4 05:52:54 37° NNW 05:52:54 37° NNW 05:55:32 10° NE
STARLINK 1051 3.4 05:53:07 36° NNW 05:53:07 36° NNW 05:55:46 10° NE
ADEOS Rocket 3.3 05:49:09 10° SSE 05:54:32 62° ENE 06:00:12 10° N
FALCON 9 DEB 4.1 05:53:43 24° NNW 05:55:23 42° NNE 05:58:45 10° ESE
STARLINK 1020 3.5 05:54:39 33° W 05:56:02 55° NNW 05:59:43 10° NE
Cosmos 1703 3.5 05:53:18 17° NNW 05:56:02 46° W 05:59:48 10° SSW
USA 215 3.3 05:50:56 10° SE 05:57:28 88° NE 06:03:10 15° NW
NOSS 3-4 (A) 3.6 05:53:23 16° WSW 05:57:56 48° NW 06:04:05 10° NNE
NOSS 3-4 (C) 3.6 05:53:24 16° WSW 05:58:01 49° NW 06:04:12 10° NNE
Meteor 1-11 4.1 05:52:30 10° NNW 05:58:06 74° W 06:03:45 10° S
Cosmos 1953 Rocket 4.0 05:55:42 16° NNW 05:58:48 37° W 06:02:50 10° SSW
SKYMED 2 4.3 05:55:10 10° SSW 05:59:01 31° W 06:00:58 22° NW
STARLINK 1034 3.5 05:57:53 30° W 05:59:23 51° NNW 06:03:02 10° NE
METEOR-M 4.4 05:58:26 10° N 06:03:31 45° WNW 06:08:34 10° SW
SL-8 Rocket 4.2 05:58:04 10° NNW 06:03:57 47° W 06:09:48 10° SSW
STARLINK 1014 3.7 06:03:59 29° NW 06:04:30 31° NNW 06:07:16 10° NE
STARLINK 1033 3.7 06:04:21 25° W 06:06:08 46° NNW 06:09:46 10° NE
CENTAUR R/B 3.4 05:59:13 13° NW 06:06:24 54° WSW 06:14:49 10° S
Lacrosse 5 1.9 06:01:54 12° WSW 06:06:39 65° NW 06:11:43 10° NE
Cosmos 2181 Rocket 4.3 06:01:11 10° SSW 06:07:03 43° WNW 06:13:03 10° N
Cosmos 2322 Rocket 2.2 06:03:36 10° SW 06:09:10 57° WNW 06:14:47 10° NNE
Cosmos 1340 Rocket 4.1 06:07:43 10° SSE 06:11:25 42° E 06:15:08 10° NNE
CZ-4B DEB 4.5 06:06:09 10° N 06:11:25 45° WNW 06:16:37 10° SW
Cosmos 1437 3.7 06:08:42 10° N 06:11:39 45° ENE 06:14:34 10° SSE
Cosmos 158 Rocket 4.0 06:07:12 10° SW 06:11:53 47° WNW 06:16:40 10° N
Lacrosse 5 rocket 3.7 06:09:28 10° NNW 06:12:23 16° NNE 06:15:13 10° ENE
STARLINK 1055 4.4 06:09:42 10° SW 06:13:44 54° SE 06:17:48 10° ENE
Cosmos 2263 Rocket 2.8 06:10:43 13° NW 06:15:08 35° WSW 06:20:12 10° SSW
STARLINK 1029 3.9 06:14:57 22° WNW 06:16:11 30° NNW 06:19:00 10° NE
STARLINK-29 3.7 06:15:42 16° NW 06:18:22 54° NNE 06:21:50 10° ESE
STARLINK 1022 4.2 06:14:38 10° SW 06:18:42 60° SE 06:22:48 10° ENE
Cosmos 1452 Rocket 4.4 06:13:58 10° N 06:19:06 52° ENE 06:24:13 10° SE
Envisat 4.4 06:14:24 10° NNE 06:19:15 43° E 06:24:04 10° S
STARLINK-52 3.8 06:17:22 15° NW 06:20:06 50° NNE 06:23:31 10° ESE
STARLINK 1042 4.0 06:19:35 10° SW 06:23:41 66° SE 06:27:48 10° ENE
Helios 1A Rocket 3.1 06:20:45 10° N 06:24:46 51° WNW 06:28:47 10° SSW
STARLINK 1040 4.3 06:24:37 16° NW 06:25:42 20° NNW 06:27:56 10° NNE
Cosmos 2333 Rocket 4.0 06:20:38 10° S 06:25:50 36° ESE 06:31:04 10° NE
Okean O Rocket 2.1 06:23:04 10° N 06:27:12 39° WNW 06:31:18 10° SW
Cosmos 1844 Rocket 3.2 06:21:45 10° NNW 06:27:22 64° ENE 06:32:58 10° SE
STARLINK 1056 3.9 06:24:31 10° SW 06:28:37 72° SE 06:32:45 10° ENE
STARLINK 1044 4.2 06:27:20 14° W 06:30:09 33° NNW 06:33:35 10° NE
Okean-O 4.0 06:28:47 10° NNE 06:33:03 45° E 06:37:17 10° S
ATLAS 2AS CENTAUR R/B 3.7 06:26:20 10° W 06:33:27 34° NW 06:40:32 10° NNE
STARLINK 1054 3.8 06:29:28 10° SW 06:33:35 79° SE 06:37:44 10° NE
Cosmos 2058 Rocket 4.1 06:31:03 10° SW 06:34:32 23° WNW 06:38:02 10° NNW
EXPRESS MD2 4.2 06:33:16 10° NW 06:35:09 17° N 06:36:45 10° NE
Cosmos 1821 Rocket 4.0 06:31:19 10° N 06:37:30 84° W 06:43:35 10° S
STARLINK 1035 4.3 06:34:58 12° W 06:37:42 27° NNW 06:40:44 10° NE
Nadezhda 3 Rocket 3.9 06:31:48 10° SSW 06:37:55 75° W 06:44:08 10° N
STARLINK 1062 3.7 06:34:24 10° SW 06:38:32 85° SSE 06:42:42 10° NE
SMAP 3.0 06:34:22 10° N 06:39:01 73° WNW 06:43:38 10° SSW
STARLINK 1027 4.5 06:38:34 11° W 06:41:25 25° NNW 06:44:23 10° NE
STARLINK-60 3.6 06:38:33 11° WNW 06:41:39 44° SW 06:44:51 10° SSE
STARLINK 1053 3.6 06:39:24 10° SW 06:43:32 88° NW 06:47:42 10° NE
STARLINK 1031 4.4 06:40:27 10° W 06:43:40 28° NNW 06:46:54 10° NE
CZ-4 R/B 3.6 06:40:06 10° NNE 06:43:56 32° E 06:47:41 10° SSE
IRS-1C Rocket 4.1 06:38:55 10° NNE 06:44:13 82° WNW 06:49:30 10° SSW
BREEZE-M DEB (TANK) 4.1 06:36:27 10° W 06:44:45 37° NNW 06:48:36 10° NE
NOAA 12 4.4 06:39:40 10° NNE 06:44:59 78° ESE 06:50:18 10° S
Cosmos 1420 Rocket 4.1 06:41:22 10° NNW 06:46:39 69° WSW 06:51:55 10° S
STARLINK 1024 4.5 06:43:40 10° W 06:46:52 27° NNW 06:50:04 10° NE
Abrixas rocket 4.4 06:47:28 10° WSW 06:48:27 11° SW 06:49:25 10° SSW
STARLINK 1061 3.6 06:44:23 10° SW 06:48:31 82° NW 06:52:41 10° NE
SL-16 R/B 3.2 06:46:38 10° WSW 06:51:13 25° NW 06:55:50 10° N
STARLINK 1067 3.6 06:49:22 10° WSW 06:53:29 75° NW 06:57:39 10° NE
Cosmos 2333 4.4 06:47:47 10° SSW 06:53:34 86° ESE 06:59:23 10° NNE
Cosmos 1300 3.5 06:50:18 10° SW 06:53:42 31° WNW 06:57:08 10° NNW
H-2A R/B 3.4 06:50:53 10° N 06:54:26 34° WNW 06:57:57 10° SW
Cosmos 2322 3.7 06:49:18 10° SSW 06:54:58 82° WNW 07:00:40 10° NNE
Cosmos 1076 Rocket 3.6 06:50:51 10° NNW 06:55:11 59° W 06:59:27 10° S
Cosmos 2360 Rocket 2.5 06:49:52 10° SW 06:55:19 48° WNW 07:00:49 10° NNE
CZ-2C R/B 4.3 06:51:14 10° SE 06:55:58 34° ENE 07:00:48 10° N
BREEZE M DEB (TANK) 3.3 06:52:18 10° WNW 07:03:22 83° NNE 07:06:40 10° ESE
